Time,TemperatureF,DewpointF,PressureIn,WindDirection,WindDirectionDegrees,WindSpeedMPH,WindSpeedGustMPH,Humidity,HourlyPrecipIn,Conditions,Clouds,dailyrainin,SoftwareType,DateUTC
2013-02-04 00:04:00,50.5,41.5,30.03,NE,51,0.0,0.0,71,0.00,,---,0.00,VWS V14.01,2013-02-04 08:04:00,
2013-02-04 00:09:00,50.5,41.1,30.03,NE,51,1.0,3.0,70,0.00,,---,0.00,VWS V14.01,2013-02-04 08:09:00,
2013-02-04 00:14:00,50.5,41.1,30.03,NE,49,3.0,3.0,70,0.00,,---,0.00,VWS V14.01,2013-02-04 08:14:00,
2013-02-04 00:19:00,50.5,41.1,30.03,NE,51,0.0,4.0,70,0.00,,---,0.00,VWS V14.01,2013-02-04 08:19:00,
2013-02-04 00:24:00,50.5,41.1,30.02,NE,51,0.0,4.0,70,0.00,,---,0.00,VWS V14.01,2013-02-04 08:24:00,
2013-02-04 00:29:00,50.4,41.0,30.02,NE,51,0.0,4.0,70,0.00,,---,0.00,VWS V14.01,2013-02-04 08:29:00,
2013-02-04 00:34:00,50.2,40.4,30.02,NE,51,0.0,3.0,69,0.00,,---,0.00,VWS V14.01,2013-02-04 08:34:00,
2013-02-04 00:39:00,50.1,40.7,30.02,NE,52,2.0,3.0,70,0.00,,---,0.00,VWS V14.01,2013-02-04 08:39:00,
2013-02-04 00:44:00,50.1,40.7,30.02,NE,51,0.0,3.0,70,0.00,,---,0.00,VWS V14.01,2013-02-04 08:44:00,
2013-02-04 00:49:00,50.2,40.8,30.02,NE,51,0.0,0.0,70,0.00,,---,0.00,VWS V14.01,2013-02-04 08:49:00,
2013-02-04 00:54:00,50.3,40.9,30.02,NE,51,0.0,0.0,70,0.00,,---,0.00,VWS V14.01,2013-02-04 08:54:00,
2013-02-04 00:59:00,50.4,41.0,30.02,NE,51,0.0,0.0,70,0.00,,---,0.00,VWS V14.01,2013-02-04 08:59:00,
2013-02-04 01:04:00,50.4,41.0,30.02,NE,51,0.0,0.0,70,0.00,,---,0.00,VWS V14.01,2013-02-04 09:04:00,
2013-02-04 01:09:00,50.3,40.9,30.02,NE,51,0.0,0.0,70,0.00,,---,0.00,VWS V14.01,2013-02-04 09:09:00,
2013-02-04 01:14:00,50.1,40.7,30.02,NE,51,0.0,0.0,70,0.00,,---,0.00,VWS V14.01,2013-02-04 09:14:00,
2013-02-04 01:19:00,49.9,40.5,30.02,NE,51,0.0,0.0,70,0.00,,---,0.00,VWS V14.01,2013-02-04 09:19:00,
2013-02-04 01:24:00,49.7,40.3,30.02,NE,51,0.0,0.0,70,0.00,,---,0.00,VWS V14.01,2013-02-04 09:24:00,
2013-02-04 01:29:00,49.6,40.2,30.01,NE,51,0.0,0.0,70,0.00,,---,0.00,VWS V14.01,2013-02-04 09:29:00,
2013-02-04 01:34:00,49.4,40.8,30.02,NE,51,0.0,3.0,72,0.00,,---,0.00,VWS V14.01,2013-02-04 09:34:00,
2013-02-04 01:39:00,49.3,40.3,30.02,NE,49,0.0,3.0,71,0.00,,---,0.00,VWS V14.01,2013-02-04 09:39:00,
2013-02-04 01:44:00,49.2,40.6,30.02,NE,51,0.0,3.0,72,0.00,,---,0.00,VWS V14.01,2013-02-04 09:44:00,
2013-02-04 01:49:00,49.2,40.6,30.02,NE,51,0.0,0.0,72,0.00,,---,0.00,VWS V14.01,2013-02-04 09:49:00,
2013-02-04 01:54:00,49.1,40.5,30.02,NE,51,2.0,3.0,72,0.00,,---,0.00,VWS V14.01,2013-02-04 09:54:00,
2013-02-04 01:59:00,49.0,40.4,30.02,NE,51,0.0,3.0,72,0.00,,---,0.00,VWS V14.01,2013-02-04 09:59:00,
2013-02-04 02:04:00,49.0,40.4,30.02,NE,51,2.0,3.0,72,0.00,,---,0.00,VWS V14.01,2013-02-04 10:04:00,
2013-02-04 02:09:00,49.0,40.4,30.02,NE,51,2.0,3.0,72,0.00,,---,0.00,VWS V14.01,2013-02-04 10:09:00,
2013-02-04 02:14:00,48.9,40.3,30.02,NE,51,3.0,4.0,72,0.00,,---,0.00,VWS V14.01,2013-02-04 10:14:00,
2013-02-04 02:19:00,48.9,40.6,30.02,NE,51,3.0,4.0,73,0.00,,---,0.00,VWS V14.01,2013-02-04 10:19:00,
2013-02-04 02:24:00,48.8,40.5,30.02,NE,51,0.0,4.0,73,0.00,,---,0.00,VWS V14.01,2013-02-04 10:24:00,
2013-02-04 02:29:00,48.8,40.5,30.02,NE,51,0.0,4.0,73,0.00,,---,0.00,VWS V14.01,2013-02-04 10:29:00,
2013-02-04 02:34:00,48.7,40.1,30.02,NE,51,2.0,4.0,72,0.00,,---,0.00,VWS V14.01,2013-02-04 10:34:00,
2013-02-04 02:39:00,48.8,40.2,30.02,NE,51,2.0,4.0,72,0.00,,---,0.00,VWS V14.01,2013-02-04 10:39:00,
2013-02-04 02:44:00,48.8,40.2,30.02,NE,51,3.0,4.0,72,0.00,,---,0.00,VWS V14.01,2013-02-04 10:44:00,
2013-02-04 02:49:00,48.8,40.2,30.01,NE,51,2.0,4.0,72,0.00,,---,0.00,VWS V14.01,2013-02-04 10:49:00,
2013-02-04 02:54:00,48.8,40.2,30.01,NE,51,4.0,5.0,72,0.00,,---,0.00,VWS V14.01,2013-02-04 10:54:00,
2013-02-04 02:59:00,48.8,40.2,30.01,NE,51,4.0,5.0,72,0.00,,---,0.00,VWS V14.01,2013-02-04 10:59:00,
2013-02-04 03:04:00,48.8,40.2,30.01,NE,51,3.0,5.0,72,0.00,,---,0.00,VWS V14.01,2013-02-04 11:04:00,
2013-02-04 03:09:00,48.8,40.2,30.01,NE,51,0.0,5.0,72,0.00,,---,0.00,VWS V14.01,2013-02-04 11:09:00,
2013-02-04 03:14:00,48.8,40.2,30.01,NE,51,2.0,5.0,72,0.00,,---,0.00,VWS V14.01,2013-02-04 11:14:00,
2013-02-04 03:19:00,48.8,40.2,30.02,NE,50,0.0,3.0,72,0.00,,---,0.00,VWS V14.01,2013-02-04 11:19:00,
2013-02-04 03:24:00,49.0,40.0,30.02,NE,51,4.0,5.0,71,0.00,,---,0.00,VWS V14.01,2013-02-04 11:24:00,
2013-02-04 03:29:00,49.0,39.7,30.01,NE,51,3.0,5.0,70,0.00,,---,0.00,VWS V14.01,2013-02-04 11:29:00,
2013-02-04 03:34:00,49.2,39.5,30.01,NE,49,4.0,5.0,69,0.00,,---,0.00,VWS V14.01,2013-02-04 11:34:00,
2013-02-04 03:39:00,49.2,39.5,30.01,NE,51,0.0,5.0,69,0.00,,---,0.00,VWS V14.01,2013-02-04 11:39:00,
2013-02-04 03:44:00,49.2,39.5,30.02,NE,51,1.0,5.0,69,0.00,,---,0.00,VWS V14.01,2013-02-04 11:44:00,
2013-02-04 03:49:00,49.3,39.6,30.02,NE,51,2.0,3.0,69,0.00,,---,0.00,VWS V14.01,2013-02-04 11:49:00,
2013-02-04 03:54:00,49.4,39.3,30.01,NE,51,0.0,4.0,68,0.00,,---,0.00,VWS V14.01,2013-02-04 11:54:00,
2013-02-04 03:59:00,49.2,39.5,30.01,NE,51,1.0,4.0,69,0.00,,---,0.00,VWS V14.01,2013-02-04 11:59:00,
2013-02-04 04:04:00,49.2,39.5,30.02,NE,51,0.0,3.0,69,0.00,,---,0.00,VWS V14.01,2013-02-04 12:04:00,
2013-02-04 04:09:00,49.0,39.3,30.02,NE,51,0.0,3.0,69,0.00,,---,0.00,VWS V14.01,2013-02-04 12:09:00,
2013-02-04 04:14:00,48.9,39.2,30.02,NE,51,0.0,3.0,69,0.00,,---,0.00,VWS V14.01,2013-02-04 12:14:00,
2013-02-04 04:19:00,48.7,39.4,30.02,NE,51,0.0,0.0,70,0.00,,---,0.00,VWS V14.01,2013-02-04 12:19:00,
2013-02-04 04:24:00,48.5,39.2,30.02,NE,51,0.0,0.0,70,0.00,,---,0.00,VWS V14.01,2013-02-04 12:24:00,
2013-02-04 04:29:00,48.3,39.0,30.02,NE,51,0.0,0.0,70,0.00,,---,0.00,VWS V14.01,2013-02-04 12:29:00,
2013-02-04 04:34:00,48.2,39.2,30.02,NE,50,2.0,4.0,71,0.00,,---,0.00,VWS V14.01,2013-02-04 12:34:00,
2013-02-04 04:40:00,48.0,39.1,30.02,NE,51,0.0,4.0,71,0.00,,---,0.00,VWS V14.01,2013-02-04 12:40:00,
2013-02-04 04:45:00,47.9,39.0,30.02,NE,51,0.0,4.0,71,0.00,,---,0.00,VWS V14.01,2013-02-04 12:45:00,
2013-02-04 04:50:00,47.9,39.0,30.02,NE,51,3.0,5.0,71,0.00,,---,0.00,VWS V14.01,2013-02-04 12:50:00,
2013-02-04 04:55:00,47.9,39.0,30.02,NE,51,4.0,5.0,71,0.00,,---,0.00,VWS V14.01,2013-02-04 12:55:00,
2013-02-04 05:00:00,47.9,39.0,30.02,NE,51,2.0,5.0,71,0.00,,---,0.00,VWS V14.01,2013-02-04 13:00:00,
2013-02-04 05:05:00,47.9,39.0,30.02,NE,49,4.0,6.0,71,0.00,,---,0.00,VWS V14.01,2013-02-04 13:05:00,
2013-02-04 05:10:00,48.0,39.1,30.02,NE,50,2.0,6.0,71,0.00,,---,0.00,VWS V14.01,2013-02-04 13:10:00,
2013-02-04 05:15:00,48.1,39.2,30.03,NE,50,2.0,6.0,71,0.00,,---,0.00,VWS V14.01,2013-02-04 13:15:00,
2013-02-04 05:20:00,48.1,38.8,30.03,NE,51,2.0,4.0,70,0.00,,---,0.00,VWS V14.01,2013-02-04 13:20:00,
2013-02-04 05:25:00,48.1,38.8,30.03,NE,50,1.0,4.0,70,0.00,,---,0.00,VWS V14.01,2013-02-04 13:25:00,
2013-02-04 05:30:00,48.1,38.8,30.02,NE,51,2.0,4.0,70,0.00,,---,0.00,VWS V14.01,2013-02-04 13:30:00,
2013-02-04 05:35:00,48.1,38.8,30.03,NE,51,3.0,5.0,70,0.00,,---,0.00,VWS V14.01,2013-02-04 13:35:00,
2013-02-04 05:40:00,48.1,38.8,30.03,NE,50,2.0,5.0,70,0.00,,---,0.00,VWS V14.01,2013-02-04 13:40:00,
2013-02-04 05:45:00,48.1,38.8,30.03,NE,49,3.0,5.0,70,0.00,,---,0.00,VWS V14.01,2013-02-04 13:45:00,
2013-02-04 05:50:00,48.2,38.9,30.02,NE,50,3.0,5.0,70,0.00,,---,0.00,VWS V14.01,2013-02-04 13:50:00,
2013-02-04 05:55:00,48.3,38.6,30.02,NE,50,3.0,5.0,69,0.00,,---,0.00,VWS V14.01,2013-02-04 13:55:00,
2013-02-04 06:00:00,48.3,38.6,30.02,NE,51,1.0,6.0,69,0.00,,---,0.00,VWS V14.01,2013-02-04 14:00:00,
2013-02-04 06:05:00,48.4,38.7,30.02,NE,51,3.0,5.0,69,0.00,,---,0.00,VWS V14.01,2013-02-04 14:05:00,
2013-02-04 06:10:00,48.5,38.8,30.02,NE,51,2.0,5.0,69,0.00,,---,0.00,VWS V14.01,2013-02-04 14:10:00,
2013-02-04 06:15:00,48.4,39.1,30.02,NE,51,3.0,5.0,70,0.00,,---,0.00,VWS V14.01,2013-02-04 14:15:00,
2013-02-04 06:20:00,48.5,39.2,30.03,NE,49,3.0,4.0,70,0.00,,---,0.00,VWS V14.01,2013-02-04 14:20:00,
2013-02-04 06:25:00,48.5,38.8,30.03,NE,51,3.0,5.0,69,0.00,,---,0.00,VWS V14.01,2013-02-04 14:25:00,
2013-02-04 06:30:00,48.4,38.7,30.03,NE,51,3.0,5.0,69,0.00,,---,0.00,VWS V14.01,2013-02-04 14:30:00,
2013-02-04 06:35:00,48.4,39.1,30.03,NE,51,3.0,4.0,70,0.00,,---,0.00,VWS V14.01,2013-02-04 14:35:00,
2013-02-04 06:40:00,48.3,39.0,30.03,NE,51,3.0,5.0,70,0.00,,---,0.00,VWS V14.01,2013-02-04 14:40:00,
2013-02-04 06:45:00,48.3,39.0,30.03,NE,51,1.0,5.0,70,0.00,,---,0.00,VWS V14.01,2013-02-04 14:45:00,
2013-02-04 06:50:00,48.3,39.0,30.03,NE,51,0.0,3.0,70,0.00,,---,0.00,VWS V14.01,2013-02-04 14:50:00,
2013-02-04 06:55:00,48.2,38.9,30.04,NE,50,1.0,4.0,70,0.00,,---,0.00,VWS V14.01,2013-02-04 14:55:00,
2013-02-04 07:00:00,48.2,38.9,30.04,NE,51,2.0,4.0,70,0.00,,---,0.00,VWS V14.01,2013-02-04 15:00:00,
2013-02-04 07:05:00,48.2,38.9,30.05,NE,51,2.0,3.0,70,0.00,,---,0.00,VWS V14.01,2013-02-04 15:05:00,
2013-02-04 07:10:00,48.3,39.0,30.05,NE,51,2.0,5.0,70,0.00,,---,0.00,VWS V14.01,2013-02-04 15:10:00,
2013-02-04 07:15:00,48.3,39.0,30.05,NE,51,0.0,5.0,70,0.00,,---,0.00,VWS V14.01,2013-02-04 15:15:00,
2013-02-04 07:20:00,48.5,39.5,30.05,NE,52,3.0,5.0,71,0.00,,---,0.00,VWS V14.01,2013-02-04 15:20:00,
2013-02-04 07:25:00,48.7,39.4,30.05,NE,52,0.0,5.0,70,0.00,,---,0.00,VWS V14.01,2013-02-04 15:25:00,
2013-02-04 07:30:00,48.8,39.5,30.05,NE,52,2.0,5.0,70,0.00,,---,0.00,VWS V14.01,2013-02-04 15:30:00,
2013-02-04 07:35:00,49.1,39.8,30.05,NE,53,0.0,3.0,70,0.00,,---,0.00,VWS V14.01,2013-02-04 15:35:00,
2013-02-04 07:40:00,49.4,40.0,30.05,NE,53,3.0,3.0,70,0.00,,---,0.00,VWS V14.01,2013-02-04 15:40:00,
2013-02-04 07:45:00,50.0,40.6,30.05,NE,52,0.0,3.0,70,0.00,,---,0.00,VWS V14.01,2013-02-04 15:45:00,
2013-02-04 07:50:00,51.0,41.2,30.05,NE,52,1.0,1.0,69,0.00,,---,0.00,VWS V14.01,2013-02-04 15:50:00,
2013-02-04 07:55:00,52.3,42.1,30.06,NE,52,0.0,3.0,68,0.00,,---,0.00,VWS V14.01,2013-02-04 15:55:00,
2013-02-04 08:00:00,53.9,42.8,30.06,NE,52,0.0,3.0,66,0.00,,---,0.00,VWS V14.01,2013-02-04 16:00:00,
2013-02-04 08:05:00,55.4,42.6,30.06,NE,52,0.0,1.0,62,0.00,,---,0.00,VWS V14.01,2013-02-04 16:05:00,
2013-02-04 08:10:00,57.1,42.9,30.06,NE,53,0.0,1.0,59,0.00,,---,0.00,VWS V14.01,2013-02-04 16:10:00,
2013-02-04 08:15:00,58.7,44.0,30.06,NE,52,0.0,0.0,58,0.00,,---,0.00,VWS V14.01,2013-02-04 16:15:00,
2013-02-04 08:20:00,60.0,44.3,30.05,NE,53,0.0,0.0,56,0.00,,---,0.00,VWS V14.01,2013-02-04 16:20:00,
2013-02-04 08:25:00,61.2,44.9,30.05,NE,53,0.0,0.0,55,0.00,,---,0.00,VWS V14.01,2013-02-04 16:25:00,
2013-02-04 08:30:00,62.2,44.9,30.05,NE,53,0.0,0.0,53,0.00,,---,0.00,VWS V14.01,2013-02-04 16:30:00,
2013-02-04 08:35:00,63.0,44.6,30.05,NE,52,0.0,0.0,51,0.00,,---,0.00,VWS V14.01,2013-02-04 16:35:00,
2013-02-04 08:40:00,63.5,45.1,30.05,NE,53,0.0,0.0,51,0.00,,---,0.00,VWS V14.01,2013-02-04 16:40:00,
2013-02-04 08:45:00,64.4,44.8,30.05,NE,53,1.0,1.0,49,0.00,,---,0.00,VWS V14.01,2013-02-04 16:45:00,
2013-02-04 08:50:00,65.5,46.4,30.05,NE,52,0.0,2.0,50,0.00,,---,0.00,VWS V14.01,2013-02-04 16:50:00,
2013-02-04 08:55:00,66.6,46.3,30.05,NE,52,0.0,2.0,48,0.00,,---,0.00,VWS V14.01,2013-02-04 16:55:00,
2013-02-04 09:00:00,67.6,46.1,30.05,NE,52,0.0,2.0,46,0.00,,---,0.00,VWS V14.01,2013-02-04 17:00:00,
2013-02-04 09:05:00,67.9,47.5,30.05,NE,53,0.0,3.0,48,0.00,,---,0.00,VWS V14.01,2013-02-04 17:05:00,
2013-02-04 09:10:00,67.8,47.4,30.06,NE,53,0.0,3.0,48,0.00,,---,0.00,VWS V14.01,2013-02-04 17:10:00,
2013-02-04 09:15:00,67.2,47.4,30.06,NE,53,0.0,0.0,49,0.00,,---,0.00,VWS V14.01,2013-02-04 17:15:00,
2013-02-04 09:20:00,66.9,47.1,30.06,SW,217,5.0,5.0,49,0.00,,---,0.00,VWS V14.01,2013-02-04 17:20:00,
2013-02-04 09:25:00,66.7,47.5,30.06,WSW,254,0.0,5.0,50,0.00,,---,0.00,VWS V14.01,2013-02-04 17:25:00,
2013-02-04 09:30:00,66.5,47.8,30.06,WSW,240,0.0,5.0,51,0.00,,---,0.00,VWS V14.01,2013-02-04 17:30:00,
2013-02-04 09:35:00,66.3,48.2,30.06,WSW,254,2.0,4.0,52,0.00,,---,0.00,VWS V14.01,2013-02-04 17:35:00,
2013-02-04 09:40:00,66.4,47.7,30.06,SW,232,0.0,4.0,51,0.00,,---,0.00,VWS V14.01,2013-02-04 17:40:00,
2013-02-04 09:45:00,66.4,48.3,30.06,WSW,258,2.0,4.0,52,0.00,,---,0.00,VWS V14.01,2013-02-04 17:45:00,
2013-02-04 09:50:00,66.6,49.0,30.06,West,259,0.0,3.0,53,0.00,,---,0.00,VWS V14.01,2013-02-04 17:50:00,
2013-02-04 09:55:00,66.7,48.5,30.06,WNW,298,0.0,4.0,52,0.00,,---,0.00,VWS V14.01,2013-02-04 17:55:00,
2013-02-04 10:00:00,66.6,49.0,30.06,WSW,237,2.0,5.0,53,0.00,,---,0.00,VWS V14.01,2013-02-04 18:00:00,
2013-02-04 10:05:00,66.6,49.0,30.06,WSW,238,2.0,4.0,53,0.00,,---,0.00,VWS V14.01,2013-02-04 18:05:00,
2013-02-04 10:10:00,66.5,48.3,30.06,WSW,238,3.0,4.0,52,0.00,,---,0.00,VWS V14.01,2013-02-04 18:10:00,
2013-02-04 10:15:00,66.6,48.4,30.07,WSW,243,0.0,0.0,52,0.00,,---,0.00,VWS V14.01,2013-02-04 18:15:00,
2013-02-04 10:20:00,67.5,49.8,30.07,WSW,244,1.0,3.0,53,0.00,,---,0.00,VWS V14.01,2013-02-04 18:20:00,
2013-02-04 10:25:00,68.4,49.6,30.06,WSW,243,1.0,3.0,51,0.00,,---,0.00,VWS V14.01,2013-02-04 18:25:00,
2013-02-04 10:30:00,69.0,49.1,30.06,WSW,244,0.0,0.0,49,0.00,,---,0.00,VWS V14.01,2013-02-04 18:30:00,
2013-02-04 10:35:00,69.2,48.1,30.06,WSW,240,0.0,4.0,47,0.00,,---,0.00,VWS V14.01,2013-02-04 18:35:00,
2013-02-04 10:40:00,69.7,48.6,30.05,WSW,240,2.0,4.0,47,0.00,,---,0.00,VWS V14.01,2013-02-04 18:40:00,
2013-02-04 10:45:00,70.1,49.0,30.05,WSW,257,0.0,1.0,47,0.00,,---,0.00,VWS V14.01,2013-02-04 18:45:00,
2013-02-04 10:50:00,70.1,49.0,30.05,West,267,1.0,4.0,47,0.00,,---,0.00,VWS V14.01,2013-02-04 18:50:00,
2013-02-04 10:55:00,70.2,50.2,30.05,SW,227,6.0,6.0,49,0.00,,---,0.00,VWS V14.01,2013-02-04 18:55:00,
2013-02-04 11:00:00,70.3,49.7,30.05,SW,228,3.0,5.0,48,0.00,,---,0.00,VWS V14.01,2013-02-04 19:00:00,
2013-02-04 11:05:00,70.5,50.4,30.04,SSW,211,2.0,6.0,49,0.00,,---,0.00,VWS V14.01,2013-02-04 19:05:00,
2013-02-04 11:10:00,70.5,48.8,30.04,West,267,0.0,6.0,46,0.00,,---,0.00,VWS V14.01,2013-02-04 19:10:00,
2013-02-04 11:15:00,70.3,50.8,30.04,SW,215,0.0,2.0,50,0.00,,---,0.00,VWS V14.01,2013-02-04 19:15:00,
2013-02-04 11:20:00,70.7,50.6,30.04,SW,232,3.0,6.0,49,0.00,,---,0.00,VWS V14.01,2013-02-04 19:20:00,
2013-02-04 11:25:00,70.9,50.2,30.04,SW,236,5.0,6.0,48,0.00,,---,0.00,VWS V14.01,2013-02-04 19:25:00,
2013-02-04 11:30:00,70.7,50.6,30.03,WSW,250,4.0,4.0,49,0.00,,---,0.00,VWS V14.01,2013-02-04 19:30:00,
2013-02-04 11:36:00,70.2,51.2,30.04,SW,223,3.0,6.0,51,0.00,,---,0.00,VWS V14.01,2013-02-04 19:36:00,
2013-02-04 11:41:00,70.2,51.2,30.04,WSW,240,3.0,6.0,51,0.00,,---,0.00,VWS V14.01,2013-02-04 19:41:00,
2013-02-04 11:46:00,70.2,52.3,30.03,West,271,1.0,3.0,53,0.00,,---,0.00,VWS V14.01,2013-02-04 19:46:00,
2013-02-04 11:51:00,69.9,51.5,30.03,West,276,0.0,6.0,52,0.00,,---,0.00,VWS V14.01,2013-02-04 19:51:00,
2013-02-04 11:56:00,68.9,52.1,30.03,WSW,252,4.0,9.0,55,0.00,,---,0.00,VWS V14.01,2013-02-04 19:56:00,
2013-02-04 12:01:00,68.8,52.5,30.03,WSW,252,8.0,8.0,56,0.00,,---,0.00,VWS V14.01,2013-02-04 20:01:00,
2013-02-04 12:06:00,68.8,52.0,30.03,WSW,255,1.0,8.0,55,0.00,,---,0.00,VWS V14.01,2013-02-04 20:06:00,
2013-02-04 12:11:00,68.8,51.0,30.03,West,262,4.0,8.0,53,0.00,,---,0.00,VWS V14.01,2013-02-04 20:11:00,
2013-02-04 12:16:00,68.8,50.5,30.02,SW,235,4.0,4.0,52,0.00,,---,0.00,VWS V14.01,2013-02-04 20:16:00,
2013-02-04 12:21:00,69.3,52.0,30.02,WSW,250,2.0,6.0,54,0.00,,---,0.00,VWS V14.01,2013-02-04 20:21:00,
2013-02-04 12:26:00,69.7,51.8,30.01,West,269,3.0,6.0,53,0.00,,---,0.00,VWS V14.01,2013-02-04 20:26:00,
2013-02-04 12:31:00,69.1,51.3,30.01,West,264,3.0,4.0,53,0.00,,---,0.00,VWS V14.01,2013-02-04 20:31:00,
2013-02-04 12:36:00,69.3,51.5,30.01,WSW,240,2.0,6.0,53,0.00,,---,0.00,VWS V14.01,2013-02-04 20:36:00,
2013-02-04 12:41:00,69.9,51.0,30.01,WSW,245,1.0,6.0,51,0.00,,---,0.00,VWS V14.01,2013-02-04 20:41:00,
2013-02-04 12:46:00,70.1,51.2,30.00,SW,234,2.0,3.0,51,0.00,,---,0.00,VWS V14.01,2013-02-04 20:46:00,
2013-02-04 12:51:00,70.6,50.5,30.00,WNW,294,0.0,6.0,49,0.00,,---,0.00,VWS V14.01,2013-02-04 20:51:00,
2013-02-04 12:56:00,70.8,51.8,30.00,WNW,291,3.0,7.0,51,0.00,,---,0.00,VWS V14.01,2013-02-04 20:56:00,
2013-02-04 13:01:00,70.7,51.7,29.99,West,264,1.0,1.0,51,0.00,,---,0.00,VWS V14.01,2013-02-04 21:01:00,
2013-02-04 13:06:00,70.6,53.2,29.99,WSW,244,4.0,6.0,54,0.00,,---,0.00,VWS V14.01,2013-02-04 21:06:00,
2013-02-04 13:11:00,70.4,52.0,30.00,West,269,3.0,6.0,52,0.00,,---,0.00,VWS V14.01,2013-02-04 21:11:00,
2013-02-04 13:16:00,69.8,51.9,29.99,WSW,252,5.0,5.0,53,0.00,,---,0.00,VWS V14.01,2013-02-04 21:16:00,
2013-02-04 13:21:00,69.7,52.3,29.99,West,269,2.0,7.0,54,0.00,,---,0.00,VWS V14.01,2013-02-04 21:21:00,
2013-02-04 13:26:00,69.5,52.2,29.99,WNW,282,3.0,7.0,54,0.00,,---,0.00,VWS V14.01,2013-02-04 21:26:00,
2013-02-04 13:31:00,68.2,51.4,29.99,WNW,289,3.0,4.0,55,0.00,,---,0.00,VWS V14.01,2013-02-04 21:31:00,
2013-02-04 13:36:00,67.9,51.2,29.98,WNW,295,2.0,5.0,55,0.00,,---,0.00,VWS V14.01,2013-02-04 21:36:00,
2013-02-04 13:41:00,67.7,50.0,29.98,West,281,0.0,5.0,53,0.00,,---,0.00,VWS V14.01,2013-02-04 21:41:00,
2013-02-04 13:46:00,68.0,50.8,29.98,West,281,0.0,0.0,54,0.00,,---,0.00,VWS V14.01,2013-02-04 21:46:00,
2013-02-04 13:51:00,68.7,50.4,29.97,West,271,0.0,4.0,52,0.00,,---,0.00,VWS V14.01,2013-02-04 21:51:00,
2013-02-04 13:56:00,69.8,52.4,29.98,WSW,238,0.0,5.0,54,0.00,,---,0.00,VWS V14.01,2013-02-04 21:56:00,
2013-02-04 14:01:00,70.3,51.9,29.97,WSW,248,2.0,4.0,52,0.00,,---,0.00,VWS V14.01,2013-02-04 22:01:00,
2013-02-04 14:06:00,70.6,51.6,29.97,West,269,1.0,5.0,51,0.00,,---,0.00,VWS V14.01,2013-02-04 22:06:00,
2013-02-04 14:11:00,70.6,53.2,29.97,West,267,4.0,9.0,54,0.00,,---,0.00,VWS V14.01,2013-02-04 22:11:00,
2013-02-04 14:16:00,70.2,53.3,29.97,WSW,240,5.0,6.0,55,0.00,,---,0.00,VWS V14.01,2013-02-04 22:16:00,
2013-02-04 14:21:00,69.0,52.2,29.97,West,279,4.0,7.0,55,0.00,,---,0.00,VWS V14.01,2013-02-04 22:21:00,
2013-02-04 14:26:00,68.4,52.6,29.97,NW,313,0.0,7.0,57,0.00,,---,0.00,VWS V14.01,2013-02-04 22:26:00,
2013-02-04 14:31:00,68.1,53.7,29.97,West,266,3.0,5.0,60,0.00,,---,0.00,VWS V14.01,2013-02-04 22:31:00,
2013-02-04 14:36:00,67.9,53.1,29.97,NW,304,0.0,6.0,59,0.00,,---,0.00,VWS V14.01,2013-02-04 22:36:00,
2013-02-04 14:41:00,67.3,53.0,29.97,WNW,283,1.0,7.0,60,0.00,,---,0.00,VWS V14.01,2013-02-04 22:41:00,
2013-02-04 14:46:00,67.4,53.5,29.97,WSW,251,5.0,6.0,61,0.00,,---,0.00,VWS V14.01,2013-02-04 22:46:00,
2013-02-04 14:51:00,67.3,53.4,29.97,WSW,258,4.0,7.0,61,0.00,,---,0.00,VWS V14.01,2013-02-04 22:51:00,
2013-02-04 14:56:00,67.4,53.5,29.97,West,263,4.0,7.0,61,0.00,,---,0.00,VWS V14.01,2013-02-04 22:56:00,
2013-02-04 15:01:00,67.6,54.1,29.97,WSW,248,2.0,4.0,62,0.00,,---,0.00,VWS V14.01,2013-02-04 23:01:00,
2013-02-04 15:06:00,68.0,54.1,29.97,West,269,3.0,4.0,61,0.00,,---,0.00,VWS V14.01,2013-02-04 23:06:00,
2013-02-04 15:11:00,68.2,53.8,29.96,WSW,249,0.0,4.0,60,0.00,,---,0.00,VWS V14.01,2013-02-04 23:11:00,
2013-02-04 15:16:00,68.1,53.7,29.96,WNW,299,1.0,3.0,60,0.00,,---,0.00,VWS V14.01,2013-02-04 23:16:00,
2013-02-04 15:21:00,67.9,54.0,29.96,WSW,254,3.0,4.0,61,0.00,,---,0.00,VWS V14.01,2013-02-04 23:21:00,
2013-02-04 15:26:00,67.7,53.3,29.97,West,273,0.0,4.0,60,0.00,,---,0.00,VWS V14.01,2013-02-04 23:26:00,
2013-02-04 15:31:00,67.1,52.8,29.97,SW,227,5.0,5.0,60,0.00,,---,0.00,VWS V14.01,2013-02-04 23:31:00,
2013-02-04 15:36:00,67.0,53.6,29.97,WSW,238,1.0,5.0,62,0.00,,---,0.00,VWS V14.01,2013-02-04 23:36:00,
2013-02-04 15:41:00,67.0,53.6,29.97,West,276,1.0,5.0,62,0.00,,---,0.00,VWS V14.01,2013-02-04 23:41:00,
2013-02-04 15:46:00,67.1,53.7,29.97,West,276,4.0,4.0,62,0.00,,---,0.00,VWS V14.01,2013-02-04 23:46:00,
2013-02-04 15:51:00,67.1,53.2,29.97,West,260,2.0,9.0,61,0.00,,---,0.00,VWS V14.01,2013-02-04 23:51:00,
2013-02-04 15:56:00,66.7,52.8,29.97,West,265,3.0,9.0,61,0.00,,---,0.00,VWS V14.01,2013-02-04 23:56:00,
2013-02-04 16:01:00,66.3,52.9,29.97,WSW,254,3.0,6.0,62,0.00,,---,0.00,VWS V14.01,2013-02-05 00:01:00,
2013-02-04 16:06:00,66.0,53.1,29.97,West,281,3.0,6.0,63,0.00,,---,0.00,VWS V14.01,2013-02-05 00:06:00,
2013-02-04 16:11:00,65.3,52.8,29.97,WNW,294,0.0,6.0,64,0.00,,---,0.00,VWS V14.01,2013-02-05 00:11:00,
2013-02-04 16:16:00,65.1,52.6,29.97,WNW,284,0.0,2.0,64,0.00,,---,0.00,VWS V14.01,2013-02-05 00:16:00,
2013-02-04 16:21:00,65.0,53.0,29.97,WNW,284,0.0,3.0,65,0.00,,---,0.00,VWS V14.01,2013-02-05 00:21:00,
2013-02-04 16:26:00,65.0,53.0,29.97,WNW,284,0.0,3.0,65,0.00,,---,0.00,VWS V14.01,2013-02-05 00:26:00,
2013-02-04 16:31:00,64.9,52.9,29.96,WNW,283,0.0,0.0,65,0.00,,---,0.00,VWS V14.01,2013-02-05 00:31:00,
2013-02-04 16:36:00,64.8,52.8,29.96,WNW,284,0.0,0.0,65,0.00,,---,0.00,VWS V14.01,2013-02-05 00:36:00,
2013-02-04 16:41:00,64.8,53.2,29.96,SW,214,0.0,1.0,66,0.00,,---,0.00,VWS V14.01,2013-02-05 00:41:00,
2013-02-04 16:46:00,64.8,53.2,29.96,SW,217,0.0,2.0,66,0.00,,---,0.00,VWS V14.01,2013-02-05 00:46:00,
2013-02-04 16:51:00,64.8,53.2,29.96,SW,217,0.0,3.0,66,0.00,,---,0.00,VWS V14.01,2013-02-05 00:51:00,
2013-02-04 16:56:00,64.7,53.1,29.96,SW,222,1.0,4.0,66,0.00,,---,0.00,VWS V14.01,2013-02-05 00:56:00,
2013-02-04 17:01:00,64.3,52.7,29.96,WSW,238,0.0,0.0,66,0.00,,---,0.00,VWS V14.01,2013-02-05 01:01:00,
2013-02-04 17:06:00,63.9,52.3,29.96,WSW,238,0.0,2.0,66,0.00,,---,0.00,VWS V14.01,2013-02-05 01:06:00,
2013-02-04 17:11:00,63.5,52.4,29.96,WSW,239,0.0,2.0,67,0.00,,---,0.00,VWS V14.01,2013-02-05 01:11:00,
2013-02-04 17:16:00,63.0,52.3,29.96,WSW,239,0.0,0.0,68,0.00,,---,0.00,VWS V14.01,2013-02-05 01:16:00,
2013-02-04 17:21:00,62.6,51.9,29.97,WSW,239,0.0,0.0,68,0.00,,---,0.00,VWS V14.01,2013-02-05 01:21:00,
2013-02-04 17:26:00,62.2,51.9,29.97,WSW,239,0.0,1.0,69,0.00,,---,0.00,VWS V14.01,2013-02-05 01:26:00,
2013-02-04 17:31:00,61.8,51.9,29.97,WSW,238,0.0,1.0,70,0.00,,---,0.00,VWS V14.01,2013-02-05 01:31:00,
2013-02-04 17:36:00,61.3,51.5,29.97,WSW,238,0.0,1.0,70,0.00,,---,0.00,VWS V14.01,2013-02-05 01:36:00,
2013-02-04 17:42:00,61.0,51.5,29.98,WSW,241,0.0,1.0,71,0.00,,---,0.00,VWS V14.01,2013-02-05 01:42:00,
2013-02-04 17:47:00,60.7,51.2,29.98,WSW,241,0.0,0.0,71,0.00,,---,0.00,VWS V14.01,2013-02-05 01:47:00,
2013-02-04 17:52:00,60.4,51.0,29.98,WSW,241,0.0,0.0,71,0.00,,---,0.00,VWS V14.01,2013-02-05 01:52:00,
2013-02-04 17:57:00,60.1,51.1,29.98,WSW,241,0.0,0.0,72,0.00,,---,0.00,VWS V14.01,2013-02-05 01:57:00,
2013-02-04 18:02:00,59.8,51.1,29.98,WSW,241,0.0,0.0,73,0.00,,---,0.00,VWS V14.01,2013-02-05 02:02:00,
2013-02-04 18:07:00,59.5,50.8,29.98,WSW,242,0.0,0.0,73,0.00,,---,0.00,VWS V14.01,2013-02-05 02:07:00,
2013-02-04 18:12:00,59.2,50.6,29.98,WSW,241,0.0,0.0,73,0.00,,---,0.00,VWS V14.01,2013-02-05 02:12:00,
2013-02-04 18:17:00,59.0,50.7,29.99,WSW,241,0.0,0.0,74,0.00,,---,0.00,VWS V14.01,2013-02-05 02:17:00,
2013-02-04 18:22:00,58.8,50.9,29.99,WSW,241,0.0,0.0,75,0.00,,---,0.00,VWS V14.01,2013-02-05 02:22:00,
2013-02-04 18:27:00,58.4,50.5,29.99,South,172,2.0,4.0,75,0.00,,---,0.00,VWS V14.01,2013-02-05 02:27:00,
2013-02-04 18:32:00,58.1,50.2,29.99,South,177,3.0,4.0,75,0.00,,---,0.00,VWS V14.01,2013-02-05 02:32:00,
2013-02-04 18:37:00,57.7,50.2,30.00,South,178,0.0,4.0,76,0.00,,---,0.00,VWS V14.01,2013-02-05 02:37:00,
2013-02-04 18:42:00,57.3,49.8,30.00,South,177,0.0,4.0,76,0.00,,---,0.00,VWS V14.01,2013-02-05 02:42:00,
2013-02-04 18:47:00,56.9,49.8,30.00,South,177,0.0,0.0,77,0.00,,---,0.00,VWS V14.01,2013-02-05 02:47:00,
2013-02-04 18:52:00,56.5,49.4,30.01,South,176,0.0,0.0,77,0.00,,---,0.00,VWS V14.01,2013-02-05 02:52:00,
2013-02-04 18:57:00,56.2,49.4,30.01,South,177,0.0,0.0,78,0.00,,---,0.00,VWS V14.01,2013-02-05 02:57:00,
2013-02-04 19:02:00,55.8,49.4,30.00,South,177,0.0,2.0,79,0.00,,---,0.00,VWS V14.01,2013-02-05 03:02:00,
2013-02-04 19:07:00,55.4,49.0,30.00,South,176,0.0,3.0,79,0.00,,---,0.00,VWS V14.01,2013-02-05 03:07:00,
2013-02-04 19:12:00,55.1,49.0,30.01,South,176,0.0,3.0,80,0.00,,---,0.00,VWS V14.01,2013-02-05 03:12:00,
2013-02-04 19:17:00,54.8,48.8,30.01,South,177,0.0,0.0,80,0.00,,---,0.00,VWS V14.01,2013-02-05 03:17:00,
2013-02-04 19:22:00,54.5,48.5,30.01,South,177,0.0,0.0,80,0.00,,---,0.00,VWS V14.01,2013-02-05 03:22:00,
2013-02-04 19:27:00,54.2,48.5,30.01,South,177,0.0,0.0,81,0.00,,---,0.00,VWS V14.01,2013-02-05 03:27:00,
2013-02-04 19:32:00,54.0,48.3,30.02,South,177,0.0,0.0,81,0.00,,---,0.00,VWS V14.01,2013-02-05 03:32:00,
2013-02-04 19:37:00,53.7,48.0,30.02,South,176,0.0,0.0,81,0.00,,---,0.00,VWS V14.01,2013-02-05 03:37:00,
2013-02-04 19:42:00,53.5,48.2,30.02,South,176,0.0,0.0,82,0.00,,---,0.00,VWS V14.01,2013-02-05 03:42:00,
2013-02-04 19:47:00,53.2,47.9,30.03,WSW,241,0.0,3.0,82,0.00,,---,0.00,VWS V14.01,2013-02-05 03:47:00,
2013-02-04 19:52:00,52.6,47.3,30.03,WSW,242,0.0,3.0,82,0.00,,---,0.00,VWS V14.01,2013-02-05 03:52:00,
2013-02-04 19:57:00,52.1,46.8,30.04,WSW,237,0.0,4.0,82,0.00,,---,0.00,VWS V14.01,2013-02-05 03:57:00,
2013-02-04 20:02:00,51.5,46.2,30.03,WSW,238,0.0,2.0,82,0.00,,---,0.00,VWS V14.01,2013-02-05 04:02:00,
2013-02-04 20:07:00,51.0,46.3,30.03,WSW,237,0.0,3.0,84,0.00,,---,0.00,VWS V14.01,2013-02-05 04:07:00,
2013-02-04 20:12:00,50.6,46.0,30.04,WSW,237,0.0,3.0,84,0.00,,---,0.00,VWS V14.01,2013-02-05 04:12:00,
2013-02-04 20:17:00,50.5,46.2,30.04,WSW,238,0.0,0.0,85,0.00,,---,0.00,VWS V14.01,2013-02-05 04:17:00,
2013-02-04 20:22:00,50.3,46.0,30.04,SW,236,0.0,0.0,85,0.00,,---,0.00,VWS V14.01,2013-02-05 04:22:00,
2013-02-04 20:27:00,50.1,46.1,30.04,SW,236,0.0,0.0,86,0.00,,---,0.00,VWS V14.01,2013-02-05 04:27:00,
2013-02-04 20:32:00,50.1,46.1,30.04,SW,236,0.0,0.0,86,0.00,,---,0.00,VWS V14.01,2013-02-05 04:32:00,
2013-02-04 20:37:00,50.1,46.4,30.04,WSW,237,0.0,0.0,87,0.00,,---,0.00,VWS V14.01,2013-02-05 04:37:00,
2013-02-04 20:42:00,50.1,46.4,30.04,WSW,237,0.0,0.0,87,0.00,,---,0.00,VWS V14.01,2013-02-05 04:42:00,
2013-02-04 20:47:00,50.1,46.4,30.04,SW,233,0.0,0.0,87,0.00,,---,0.00,VWS V14.01,2013-02-05 04:47:00,
2013-02-04 20:52:00,50.1,46.7,30.04,SSW,210,0.0,3.0,88,0.00,,---,0.00,VWS V14.01,2013-02-05 04:52:00,
2013-02-04 20:57:00,50.1,46.7,30.05,SSW,210,2.0,3.0,88,0.00,,---,0.00,VWS V14.01,2013-02-05 04:57:00,
2013-02-04 21:00:00,50.0,46.6,30.05,SSW,210,0.0,3.0,88,0.00,,---,0.00,VWS V14.01,2013-02-05 05:00:00,
2013-02-04 21:01:00,50.0,46.6,30.05,SSW,210,3.0,3.0,88,0.00,,---,0.00,VWS V14.01,2013-02-05 05:01:00,
2013-02-04 21:06:00,50.0,46.6,30.05,SSW,211,1.0,3.0,88,0.00,,---,0.00,VWS V14.01,2013-02-05 05:06:00,
2013-02-04 21:11:00,49.9,46.5,30.05,SSW,210,0.0,4.0,88,0.00,,---,0.00,VWS V14.01,2013-02-05 05:11:00,
2013-02-04 21:16:00,49.9,46.5,30.05,SE,145,0.0,0.0,88,0.00,,---,0.00,VWS V14.01,2013-02-05 05:16:00,
2013-02-04 21:21:00,49.9,46.8,30.06,SE,145,0.0,0.0,89,0.00,,---,0.00,VWS V14.01,2013-02-05 05:21:00,
2013-02-04 21:25:00,49.8,46.7,30.06,SE,145,0.0,0.0,89,0.00,,---,0.00,VWS V14.01,2013-02-05 05:25:00,
2013-02-04 21:30:00,49.8,46.7,30.06,SE,145,0.0,0.0,89,0.00,,---,0.00,VWS V14.01,2013-02-05 05:30:00,
2013-02-04 21:35:00,49.7,46.6,30.06,SE,146,0.0,0.0,89,0.00,,---,0.00,VWS V14.01,2013-02-05 05:35:00,
2013-02-04 21:41:00,49.7,46.6,30.06,SE,145,0.0,0.0,89,0.00,,---,0.00,VWS V14.01,2013-02-05 05:41:00,
2013-02-04 21:46:00,49.6,46.5,30.06,SE,145,0.0,0.0,89,0.00,,---,0.00,VWS V14.01,2013-02-05 05:46:00,
2013-02-04 21:50:00,49.6,46.5,30.05,SE,146,0.0,0.0,89,0.00,,---,0.00,VWS V14.01,2013-02-05 05:50:00,
2013-02-04 21:56:00,49.6,46.5,30.05,ESE,119,2.0,2.0,89,0.00,,---,0.00,VWS V14.01,2013-02-05 05:56:00,
2013-02-04 22:01:00,49.6,46.5,30.04,North,360,0.0,0.0,89,0.00,,---,0.00,VWS V14.01,2013-02-05 06:01:00,
2013-02-04 22:06:00,49.5,46.4,30.04,East,86,0.0,0.0,89,0.00,,---,0.00,VWS V14.01,2013-02-05 06:06:00,
2013-02-04 22:11:00,49.5,46.4,30.04,East,86,0.0,0.0,89,0.00,,---,0.00,VWS V14.01,2013-02-05 06:11:00,
2013-02-04 22:16:00,49.3,46.2,30.04,East,86,0.0,0.0,89,0.00,,---,0.00,VWS V14.01,2013-02-05 06:16:00,
2013-02-04 22:21:00,49.2,46.1,30.05,East,86,0.0,0.0,89,0.00,,---,0.00,VWS V14.01,2013-02-05 06:21:00,
2013-02-04 22:26:00,49.0,45.9,30.04,East,86,0.0,0.0,89,0.00,,---,0.00,VWS V14.01,2013-02-05 06:26:00,
2013-02-04 22:31:00,49.0,45.9,30.05,East,86,0.0,0.0,89,0.00,,---,0.00,VWS V14.01,2013-02-05 06:31:00,
2013-02-04 22:36:00,49.0,45.9,30.05,East,86,0.0,0.0,89,0.00,,---,0.00,VWS V14.01,2013-02-05 06:36:00,
2013-02-04 22:41:00,49.0,46.2,30.05,East,86,0.0,0.0,90,0.00,,---,0.00,VWS V14.01,2013-02-05 06:41:00,
2013-02-04 22:46:00,49.1,46.3,30.05,East,86,1.0,1.0,90,0.00,,---,0.00,VWS V14.01,2013-02-05 06:46:00,
2013-02-04 22:51:00,49.2,46.4,30.05,East,86,3.0,4.0,90,0.00,,---,0.00,VWS V14.01,2013-02-05 06:51:00,
2013-02-04 22:56:00,49.2,46.4,30.05,East,86,0.0,4.0,90,0.00,,---,0.00,VWS V14.01,2013-02-05 06:56:00,
2013-02-04 23:01:00,49.1,46.3,30.05,East,86,0.0,0.0,90,0.00,,---,0.00,VWS V14.01,2013-02-05 07:01:00,
2013-02-04 23:06:00,49.0,46.2,30.04,East,86,0.0,0.0,90,0.00,,---,0.00,VWS V14.01,2013-02-05 07:06:00,
2013-02-04 23:11:00,49.0,46.2,30.05,East,86,0.0,0.0,90,0.00,,---,0.00,VWS V14.01,2013-02-05 07:11:00,
2013-02-04 23:16:00,48.8,46.0,30.05,East,86,0.0,0.0,90,0.00,,---,0.00,VWS V14.01,2013-02-05 07:16:00,
2013-02-04 23:21:00,48.8,46.0,30.05,East,86,0.0,0.0,90,0.00,,---,0.00,VWS V14.01,2013-02-05 07:21:00,
2013-02-04 23:26:00,48.9,46.1,30.05,East,86,0.0,0.0,90,0.00,,---,0.00,VWS V14.01,2013-02-05 07:26:00,
2013-02-04 23:31:00,48.9,46.1,30.05,East,86,0.0,0.0,90,0.00,,---,0.00,VWS V14.01,2013-02-05 07:31:00,
2013-02-04 23:36:00,49.0,46.2,30.05,East,87,0.0,3.0,90,0.00,,---,0.00,VWS V14.01,2013-02-05 07:36:00,
2013-02-04 23:41:00,49.0,46.2,30.04,East,86,0.0,3.0,90,0.00,,---,0.00,VWS V14.01,2013-02-05 07:41:00,
2013-02-04 23:46:00,48.9,46.1,30.04,East,86,0.0,2.0,90,0.00,,---,0.00,VWS V14.01,2013-02-05 07:46:00,
2013-02-04 23:51:00,48.9,46.1,30.04,East,81,0.0,4.0,90,0.00,,---,0.00,VWS V14.01,2013-02-05 07:51:00,
2013-02-04 23:56:00,48.8,46.0,30.03,East,79,2.0,4.0,90,0.00,,---,0.00,VWS V14.01,2013-02-05 07:56:00,